Weather History for Menominee, MI

Change the Weather History Date:

Wednesday, September 19, 2012

  Actual Average Record
Temperature  
Mean Temperature 48 °F -  
Max Temperature 62 °F 70 °F 89 °F (1955)
Min Temperature 33 °F 50 °F 33 °F (2012)
Degree Days  
Heating Degree Days 18    
Growing Degree Days 0 (Base 50)    
Moisture  
Dew Point 40 °F    
Average Humidity 74    
Maximum Humidity 100    
Minimum Humidity 41    
Precipitation  
Precipitation 0.09 in - - ()
Sea Level Pressure  
Sea Level Pressure 29.83 in    
Wind  
Wind Speed 7 mph (SW)    
Max Wind Speed 21 mph    
Max Gust Speed 40 mph    
Visibility 10 miles    
Events Thunderstorm    
Averages and records for this station are not official NWS values.
T = Trace of Precipitation, MM = Missing Value Source: NWS Daily Summary

Daily Weather History Graph

Daily Weather History Graph

Search for Another Location

Airport:

Trip Planner

Search our weather history database for the weather conditions in past years. The results will help you decide how hot, cold, wet, or windy it might be!

Date:

Astronomy

Sep. 19, 2012 Rise Set
Actual Time 6:34 AM CDT 6:52 PM CDT
Civil Twilight 6:05 AM CDT 7:22 PM CDT
Nautical Twilight 5:30 AM CDT 7:56 PM CDT
Astronomical Twilight 4:54 AM CDT 8:32 PM CDT
Moon 10:58 AM CDT 8:47 PM CDT
Length of Visible Light 13h 17m
Length of Day
12h 18m
Waxing Crescent, 17% of the Moon is Illuminated
Sep 19
Waxing Crescent
Sep 22
First Quarter
Sep 29
Full
Oct 8
Last Quarter
Oct 15
New

Hourly Weather History & Observations

Time (CDT) Temp. Windchill Dew Point Humidity Pressure Visibility Wind Dir Wind Speed Gust Speed Precip Events Conditions
12:15 AM 37.4 °F - 35.6 °F 93% 29.98 in 10.0 mi Calm Calm - N/A   Clear
12:55 AM 37.4 °F 34.9 °F 35.6 °F 93% 29.98 in 10.0 mi WNW 3.5 mph - N/A   Clear
1:15 AM 37.4 °F 34.9 °F 35.6 °F 93% 29.98 in 10.0 mi WNW 3.5 mph - N/A   Clear
1:35 AM 35.6 °F - 35.6 °F 100% 29.98 in 10.0 mi Calm Calm - N/A   Clear
1:55 AM 35.6 °F 32.8 °F 35.6 °F 100% 29.98 in 10.0 mi West 3.5 mph - N/A   Clear
2:15 AM 35.6 °F 32.8 °F 35.6 °F 100% 29.98 in 10.0 mi WNW 3.5 mph - N/A   Clear
2:35 AM 35.6 °F 32.8 °F 33.8 °F 93% 29.98 in 10.0 mi WNW 3.5 mph - N/A   Clear
2:55 AM 35.6 °F - 33.8 °F 93% 29.97 in 10.0 mi Calm Calm - N/A   Clear
3:15 AM 35.6 °F - 33.8 °F 93% 29.98 in 10.0 mi Calm Calm - N/A   Clear
3:35 AM 35.6 °F - 33.8 °F 93% 29.98 in 10.0 mi Calm Calm - N/A   Clear
3:55 AM 35.6 °F - 33.8 °F 93% 29.98 in 10.0 mi Calm Calm - N/A   Clear
4:15 AM 33.8 °F 30.8 °F 33.8 °F 100% 29.98 in 10.0 mi WSW 3.5 mph - N/A   Clear
4:55 AM 35.6 °F 32.8 °F 33.8 °F 93% 29.98 in 10.0 mi West 3.5 mph - N/A   Clear
5:15 AM 35.6 °F 30.7 °F 35.6 °F 100% 29.98 in 10.0 mi West 5.8 mph - N/A   Clear
5:35 AM 35.6 °F 31.7 °F 33.8 °F 93% 29.98 in 10.0 mi West 4.6 mph - N/A   Clear
5:55 AM 35.6 °F 32.8 °F 33.8 °F 93% 29.98 in 10.0 mi WSW 3.5 mph - N/A   Clear
6:15 AM 35.6 °F 30.7 °F 35.6 °F 100% 29.97 in 10.0 mi WSW 5.8 mph - N/A   Scattered Clouds
6:35 AM 37.4 °F 32.1 °F 35.6 °F 93% 29.97 in 10.0 mi SW 6.9 mph - N/A   Mostly Cloudy
6:55 AM 39.2 °F 34.2 °F 35.6 °F 87% 29.96 in 10.0 mi SW 6.9 mph - N/A   Overcast
7:15 AM 39.2 °F 35.9 °F 35.6 °F 87% 29.95 in 10.0 mi SW 4.6 mph - N/A   Overcast
7:35 AM 39.2 °F 35.0 °F 37.4 °F 93% 29.95 in 10.0 mi SW 5.8 mph - N/A   Overcast
7:55 AM 39.2 °F 37.0 °F 39.2 °F 100% 29.95 in 10.0 mi WSW 3.5 mph - N/A   Overcast
8:15 AM 41.0 °F - 39.2 °F 93% 29.94 in 10.0 mi Calm Calm - N/A   Overcast
8:35 AM 42.8 °F - 39.2 °F 87% 29.94 in 10.0 mi Calm Calm - N/A   Overcast
8:55 AM 44.6 °F 40.7 °F 39.2 °F 81% 29.93 in 10.0 mi South 6.9 mph - N/A   Overcast
9:15 AM 48.2 °F - 37.4 °F 66% 29.90 in 10.0 mi South 10.4 mph 19.6 mph N/A   Overcast
9:55 AM 51.8 °F - 37.4 °F 58% 29.90 in 10.0 mi South 12.7 mph 17.3 mph N/A   Overcast
10:15 AM 51.8 °F - 35.6 °F 54% 29.89 in 10.0 mi SSW 16.1 mph 21.9 mph N/A   Overcast
10:35 AM 53.6 °F - 33.8 °F 47% 29.87 in 10.0 mi South 15.0 mph 26.5 mph N/A   Overcast
10:55 AM 55.4 °F - 32.0 °F 41% 29.87 in 10.0 mi South 15.0 mph 27.6 mph N/A   Overcast
11:15 AM 55.4 °F - 32.0 °F 41% 29.86 in 10.0 mi SSW 19.6 mph 26.5 mph N/A   Overcast
11:35 AM 53.6 °F - 33.8 °F 47% 29.87 in 10.0 mi SSW 15.0 mph 23.0 mph N/A   Overcast
11:55 AM 53.6 °F - 33.8 °F 47% 29.86 in 10.0 mi SSW 11.5 mph 18.4 mph N/A   Overcast
12:15 PM 57.2 °F - 37.4 °F 48% 29.85 in 10.0 mi SSW 15.0 mph 21.9 mph N/A   Overcast
12:35 PM 55.4 °F - 39.2 °F 54% 29.84 in 10.0 mi SSW 10.4 mph 18.4 mph N/A   Mostly Cloudy
12:55 PM 59.0 °F - 39.2 °F 48% 29.81 in 10.0 mi SSW 18.4 mph 27.6 mph N/A   Partly Cloudy
1:15 PM 60.8 °F - 39.2 °F 45% 29.81 in 10.0 mi SSW 16.1 mph 24.2 mph N/A   Partly Cloudy
1:35 PM 60.8 °F - 39.2 °F 45% 29.80 in 10.0 mi SSW 19.6 mph 27.6 mph N/A   Mostly Cloudy
1:55 PM 60.8 °F - 39.2 °F 45% 29.80 in 10.0 mi SW 13.8 mph 25.3 mph N/A   Mostly Cloudy
2:15 PM 62.6 °F - 42.8 °F 48% 29.79 in 10.0 mi SSW 20.7 mph 26.5 mph N/A   Mostly Cloudy
2:35 PM 60.8 °F - 39.2 °F 45% 29.71 in 10.0 mi South 17.3 mph 24.2 mph N/A   Mostly Cloudy
2:55 PM 60.8 °F - 41.0 °F 48% 29.72 in 10.0 mi SSW 20.7 mph 31.1 mph N/A   Mostly Cloudy
3:15 PM 62.6 °F - 42.8 °F 48% 29.72 in 10.0 mi South 20.7 mph 32.2 mph N/A   Partly Cloudy
3:35 PM 60.8 °F - 41.0 °F 48% 29.71 in 10.0 mi South 17.3 mph 31.1 mph N/A   Partly Cloudy
3:55 PM 60.8 °F - 44.6 °F 55% 29.69 in 10.0 mi South 10.4 mph 19.6 mph N/A   Scattered Clouds
4:15 PM 60.8 °F - 44.6 °F 55% 29.68 in 10.0 mi South 13.8 mph 21.9 mph N/A   Partly Cloudy
4:35 PM 62.6 °F - 44.6 °F 52% 29.69 in 10.0 mi South 10.4 mph 17.3 mph N/A   Mostly Cloudy
4:55 PM 60.8 °F - 46.4 °F 59% 29.69 in 10.0 mi South 9.2 mph - N/A   Mostly Cloudy
5:15 PM 62.6 °F - 44.6 °F 52% 29.70 in 10.0 mi SSW 5.8 mph - N/A   Mostly Cloudy
5:35 PM 62.6 °F - 46.4 °F 55% 29.68 in 10.0 mi South 15.0 mph - N/A   Mostly Cloudy
5:55 PM 62.6 °F - 46.4 °F 55% 29.66 in 9.0 mi South 11.5 mph 19.6 mph N/A   Mostly Cloudy
6:15 PM 62.6 °F - 48.2 °F 59% 29.66 in 10.0 mi South 13.8 mph 19.6 mph N/A   Overcast
6:35 PM 62.6 °F - 48.2 °F 59% 29.64 in 10.0 mi South 13.8 mph 21.9 mph N/A   Overcast
6:55 PM 62.6 °F - 48.2 °F 59% 29.63 in 10.0 mi South 12.7 mph 23.0 mph N/A   Mostly Cloudy
7:15 PM 62.6 °F - 48.2 °F 59% 29.63 in 10.0 mi South 11.5 mph 18.4 mph N/A   Overcast
7:35 PM 62.6 °F - 48.2 °F 59% 29.63 in 10.0 mi SSW 11.5 mph 17.3 mph N/A   Overcast
7:55 PM 60.8 °F - 51.8 °F 72% 29.65 in 9.0 mi West 5.8 mph - 0.01 in Thunderstorm Thunderstorm
8:15 PM 59.0 °F - 53.6 °F 82% 29.66 in 10.0 mi SW 12.7 mph 19.6 mph 0.02 in Thunderstorm Thunderstorm
8:35 PM 57.2 °F - 51.8 °F 82% 29.72 in 9.0 mi NNW 17.3 mph 40.3 mph 0.06 in Thunderstorm Thunderstorm
8:55 PM 51.8 °F - 48.2 °F 88% 29.72 in 10.0 mi NNW 8.1 mph 17.3 mph 0.08 in   Overcast
9:15 PM 51.8 °F - 48.2 °F 88% 29.69 in 10.0 mi NNW 8.1 mph - N/A   Mostly Cloudy
9:35 PM 50.0 °F - 46.4 °F 87% 29.68 in 10.0 mi SW 4.6 mph - N/A   Scattered Clouds
9:55 PM 48.2 °F - 46.4 °F 93% 29.68 in 10.0 mi SW 3.5 mph - N/A   Scattered Clouds
10:15 PM 48.2 °F - 46.4 °F 93% 29.70 in 10.0 mi WSW 4.6 mph - N/A   Mostly Cloudy
10:35 PM 48.2 °F - 46.4 °F 93% 29.71 in 10.0 mi SW 5.8 mph - N/A   Partly Cloudy
10:55 PM 48.2 °F - 46.4 °F 93% 29.72 in 10.0 mi SW 9.2 mph - N/A   Clear
11:35 PM 48.2 °F - 46.4 °F 93% 29.73 in 10.0 mi SW 8.1 mph - N/A   Clear
11:55 PM 48.2 °F - 46.4 °F 93% 29.73 in 10.0 mi WSW 5.8 mph - N/A   Clear